Regional Weather Roundup
Issued by NWS

Home | Current Version | Previous Version | Graphics & Text | Print | Product List | Glossary On
Versions: 1 2 3 4 5 6 7 8 9 10 11 12 13 14 15 16 17 18 19 20 21 22 23 24 25 26 27 28 29 30 31 32 33 34 35 36 37 38 39 40 41 42 43 44 45 46 47 48 49 50
000
ASUS43 KLOT 231558
RWRIL

ILLINOIS REGIONAL WEATHER ROUNDUP
NATIONAL WEATHER SERVICE CHICAGO/ROMEOVILLE IL
1100 AM CDT WED APR 23 2014

NOTE: "FAIR" INDICATES FEW OR NO CLOUDS BELOW 12,000 FEET WITH NO
SIGNIFICANT WEATHER AND/OR OBSTRUCTIONS TO VISIBILITY.

* THESE STATIONS ARE NOT UNDER NWS QUALITY CONTROL. THEY ALSO MAY NOT
  REPORT WEATHER SUCH AS PRECIPITATION OR FOG.

ILZ001-002-007-009-015-016-024-231700-
NORTHWEST ILLINOIS

CITY           SKY/WX    TMP DP  RH WIND       PRES   REMARKS
MOLINE         CLOUDY    48  29  47 E13       30.16F
$$

ILZ003-004-008-010-011-017-018-231700-
NORTH CENTRAL ILLINOIS

CITY           SKY/WX    TMP DP  RH WIND       PRES   REMARKS
ROCKFORD       NOT AVBL
$$

ILZ005-006-012>014-019>023-231700-
NORTHEAST ILLINOIS

CITY           SKY/WX    TMP DP  RH WIND       PRES   REMARKS
CHICAGO-OHARE  MOSUNNY   44  24  45 NE9       30.18R
CHICAGO-MIDWAY MOSUNNY   44  28  53 NE8       30.18S
AURORA         SUNNY     49  27  42 NE8       30.17F
WAUKEGAN       SUNNY     42  25  50 NE12      30.18S
DUPAGE AIRPORT SUNNY     47  27  45 NE9       30.17S
WHEELING       SUNNY     44  27  51 VRB7      30.20S
NORTHERLY ISL    N/A     41  31  68 NE9         N/A
$$

LMZ740>746-231700-
SOUTHERN LAKE MICHIGAN

STATION/POSITION SKY/WX   TEMP    WIND        PRES    VSBY  WAVE
                          AIR SEA DIR/SP/G                  HT/PER
                          (F)     (DEG/KT/KT) (MB)    (MI)  (FT/S)
WAUKEGAN HARBOR            37      40/  9/ 11 1023.4F
HARRISON CRIB              36      10/  8/ 10   N/A
BURNHAM HARBOR             42      10/ 10/ 14   N/A
CALUMET HARBOR             39      20/ 11/ 14 1022.9
MICHIGAN CITY              37     350/ 13/ 14   N/A
$$

ILZ025>027-034>036-040-047-049-050-058-095>099-231700-
WEST-CENTRAL ILLINOIS

CITY           SKY/WX    TMP DP  RH WIND       PRES   REMARKS
$$

ILZ028>032-037-038-041>044-048-051>054-059>061-231700-
CENTRAL ILLINOIS

CITY           SKY/WX    TMP DP  RH WIND       PRES   REMARKS
PEORIA         NOT AVBL
SPRINGFIELD    SUNNY     54  31  41 E9G20     30.16F
TAYLORVILLE    NOT AVBL
$$

ILZ033-039-045-046-055>057-062-063-231700-
EAST-CENTRAL ILLINOIS

CITY           SKY/WX    TMP DP  RH WIND       PRES   REMARKS
MATTOON        SUNNY     50  30  46 NE7       30.14F
$$

ILZ079-100>102-231700-
SOUTHWEST ILLINOIS

CITY           SKY/WX    TMP DP  RH WIND       PRES   REMARKS
$$

ILZ064>066-069>071-074>076-080>082-084>086-088>090-092>094-231700-
SOUTH-CENTRAL ILLINOIS

CITY           SKY/WX    TMP DP  RH WIND       PRES   REMARKS
CARBONDALE     PTSUNNY   58  39  49 E10       30.12S
MARION         MOSUNNY   59  37  44 E9        30.14S
SALEM*           N/A     54  33  45 E8        30.14F
$$

ILZ067-068-072-073-078-083-087-091-231700-
SOUTHEAST ILLINOIS

CITY           SKY/WX    TMP DP  RH WIND       PRES   REMARKS
$$

ABBREVIATIONS USED IN REMARKS
   TC - TEMPERATURE IN CELSIUS
  WCI - WIND CHILL INDEX
   HX - HEAT INDEX
  VSB - VISIBILITY
$$




USA.gov is the U.S. government's official web portal to all federal, state and local government web resources and services.